[[{"header":{"parameterUnit":"m.s-1","parameterCategory":1,"la1":30.2991,"la2":30.254,"lo1":-89.0895,"lo2":-89.0444,"dy":0.0017,"dx":0.0017,"nx":28,"ny":28,"refTime":"2026-02-16T03:00:00:Z","depth":0,"parameterNumber":2,"parameterNumberName":"U-component_of_WINDS"},"data":[0,0,0,0,0,0,0,0,0,0,0,0,0,0,0,0,0,0,0,0,0,0,0,0,0,0,0,0,0,0,0,0,0,0,0,0,0,0,0,0,0,0,0,0,0,0,0,0,0,0,0,0,0,0,0,0,0,0,0.4271,0.4272,0,0.4326,0.4327,0.4327,0.4327,0.4326,0.4325,0.4325,0.438,0.4382,0.4384,0,0,0,0,0,0,0,0,0,0,0,0,0,0.4163,0.4165,0.4271,0.4272,0.4273,0.4326,0.4327,0.4328,0.4327,0.4326,0.4325,0.4324,0.4379,0.4382,0.4384,0,0,0,0,0,0,0,0,0,0,0,0,0,0.4213,0.4166,0.4271,0.4279,0.428,0.4326,0.4327,0.4328,0.4327,0.4326,0.4325,0.4324,0.4379,0.4382,0.4385,0.4427,0,0,0.4395,0.4396,0,0,0,0,0,0,0,0,0.421,0.4217,0.4277,0.4278,0.428,0.4318,0.4309,0.4361,0.4327,0.4309,0.4325,0.4323,0.436,0.4365,0.4378,0.4429,0.4432,0.4395,0.4397,0.4398,0.4399,0,0,0,0,0,0,0,0.4207,0.4215,0.4293,0.4278,0.4279,0.4278,0.4284,0.4319,0.434,0.4311,0.4311,0.4317,0.4361,0.4375,0.4379,0.4432,0.4395,0.4398,0.44,0.4401,0.4517,0.4518,0,0,0,0,0,0,0.4202,0.4212,0.4291,0.4295,0.4242,0.4281,0.4288,0.4307,0.434,0.4344,0.4318,0.4317,0.437,0.4375,0.4381,0.443,0.4398,0.4401,0.4403,0.4516,0.4517,0.4519,0,0,0,0,0,0,0.42,0.4209,0.4289,0.4253,0.4263,0.4284,0.4306,0.4309,0.4322,0.4346,0.4349,0.4328,0.4369,0.4376,0.4414,0.4432,0.4403,0.4406,0.4515,0.4517,0.4518,0.4529,0,0,0,0,0,0,0.4197,0.4208,0.4225,0.4254,0.4265,0.4323,0.4307,0.4311,0.4328,0.4327,0.4356,0.436,0.4369,0.441,0.4418,0.4436,0.4408,0.4513,0.4516,0.4518,0.4527,0.4531,0.4534,0,0,0,0,0,0.4193,0.4227,0.4226,0.4236,0.4287,0.4324,0.433,0.434,0.433,0.4346,0.436,0.4359,0.4429,0.4414,0.4423,0.4442,0.4512,0.4515,0.4517,0.4525,0.453,0.4534,0,0,0,0,0,0,0.42,0.4231,0.423,0.4275,0.4296,0.4323,0.4345,0.4345,0.437,0.4368,0.4379,0.4385,0.4423,0.4436,0.4419,0.4482,0.4469,0.4473,0.4472,0.4476,0.448,0.4475,0.4411,0,0,0,0,0,0.4207,0.4235,0.426,0.4296,0.4307,0.4324,0.434,0.4346,0.4369,0.4378,0.4395,0.4417,0.4443,0.4461,0.4487,0.4529,0.4534,0.4546,0.455,0.4552,0.4556,0.4576,0.4581,0.4527,0.4527,0.4527,0,0,0.4221,0.4241,0.4258,0.4298,0.4316,0.4343,0.4332,0.4362,0.4382,0.4382,0.4419,0.4432,0.4457,0.4496,0.4515,0.4509,0.4572,0.4556,0.4558,0.456,0.4579,0.4584,0.4589,0.4529,0.4529,0.4528,0,0,0.4261,0.428,0.4311,0.4328,0.4354,0.4365,0.4372,0.4399,0.4407,0.4444,0.4444,0.4468,0.4514,0.4531,0.4546,0.4588,0.4587,0.4597,0.4614,0.4634,0.4638,0.4642,0.4655,0.466,0.46,0.46,0.46,0,0.4275,0.4317,0.4327,0.4356,0.4372,0.4374,0.4404,0.442,0.4454,0.4465,0.4458,0.4514,0.4531,0.4573,0.4583,0.4596,0.4603,0.4593,0.4637,0.464,0.4644,0.4657,0.4662,0.4601,0.4601,0.4601,0.4601,0,0.4332,0.436,0.4382,0.4413,0.4432,0.4462,0.4475,0.4493,0.4496,0.4507,0.4543,0.4563,0.4592,0.4602,0.4607,0.4644,0.4639,0.4634,0.4621,0.465,0.4662,0.4667,0.4602,0.4602,0.4602,0.4601,0,0,0.4378,0.4413,0.4421,0.4434,0.4462,0.4484,0.4512,0.454,0.4554,0.4577,0.46,0.4637,0.4632,0.4649,0.4654,0.4672,0.4701,0.4664,0.4665,0.4669,0.4741,0.4744,0.4749,0.4701,0.4702,0.4703,0.4738,0,0.4419,0.4471,0.4479,0.4524,0.4549,0.4549,0.4574,0.4593,0.4603,0.4625,0.4637,0.4662,0.4655,0.4664,0.4682,0.4694,0.4716,0.4692,0.4721,0.4722,0.4713,0.4756,0.4759,0.4792,0.4743,0.4744,0.4745,0,0.4474,0.4497,0.4544,0.4566,0.4576,0.4599,0.4623,0.4645,0.4666,0.4672,0.4689,0.4692,0.472,0.4706,0.4743,0.4727,0.4739,0.4747,0.4748,0.475,0.4734,0.4757,0.4803,0.4807,0.4752,0.4752,0.4751,0,0.45,0.4543,0.4576,0.4587,0.4614,0.4629,0.4641,0.4661,0.4676,0.4698,0.4707,0.4732,0.4745,0.4763,0.4771,0.4761,0.4808,0.4795,0.4812,0.4811,0.4821,0.482,0.4868,0.4831,0.4831,0.4831,0.4831,0,0.4544,0.4572,0.4587,0.4608,0.4638,0.4647,0.4677,0.4688,0.4705,0.4726,0.4729,0.4748,0.4759,0.478,0.4787,0.4816,0.4822,0.4827,0.4828,0.4826,0.4825,0.4833,0.483,0.4833,0.4832,0.4832,0.4832,0,0.4579,0.459,0.4626,0.4648,0.4654,0.4675,0.4694,0.4712,0.4722,0.4748,0.4755,0.477,0.4794,0.4805,0.4835,0.4839,0.4872,0.4872,0.4864,0.4865,0.488,0.4878,0.4934,0.494,0.4901,0.4901,0.4902,0,0.4605,0.4627,0.465,0.4665,0.4677,0.47,0.4715,0.4724,0.4739,0.4763,0.4778,0.4802,0.4822,0.4861,0.4874,0.4896,0.4896,0.4914,0.4899,0.4895,0.4894,0.4892,0.4893,0.4916,0.4916,0.4917,0.4917,0,0.465,0.4654,0.4676,0.4699,0.4717,0.4736,0.4754,0.4765,0.4777,0.4794,0.4818,0.4833,0.4863,0.4886,0.4909,0.492,0.492,0.4921,0.4926,0.4924,0.4918,0.4919,0.487,0.492,0.492,0.492,0.4919,0.4919,0.468,0.4698,0.4717,0.4741,0.4755,0.4771,0.4789,0.48,0.4821,0.4846,0.485,0.4875,0.4893,0.4923,0.4935,0.4954,0.495,0.4957,0.4959,0.496,0.496,0.4915,0.4959,0.4959,0.4959,0.4959,0.4959,0,0.4724,0.4735,0.4757,0.4782,0.4799,0.4798,0.4817,0.4832,0.4854,0.4871,0.489,0.4917,0.4939,0.4953,0.4974,0.4987,0.4987,0.4992,0.4991,0.4993,0.4964,0.4957,0.4992,0.4992,0.4991,0.4991,0.4991,0.4991,0.4748,0.4778,0.4784,0.4819,0.4831,0.4856,0.4867,0.4881,0.4894,0.4924,0.4942,0.4951,0.4966,0.4988,0.5008,0.5011,0.5018,0.5023,0.5026,0.4999,0.4995,0.4992,0.4985,0.5025,0.5025,0.5053,0.5053,0.5053]},{"header":{"parameterUnit":"m.s-1","parameterCategory":1,"la1":30.2991,"la2":30.254,"lo1":-89.0895,"lo2":-89.0444,"dy":0.0017,"dx":0.0017,"nx":28,"ny":28,"refTime":"2026-02-16T03:00:00:Z","depth":0,"parameterNumber":3,"parameterNumberName":"V-component_of_WINDS"},"data":[0,0,0,0,0,0,0,0,0,0,0,0,0,0,0,0,0,0,0,0,0,0,0,0,0,0,0,0,0,0,0,0,0,0,0,0,0,0,0,0,0,0,0,0,0,0,0,0,0,0,0,0,0,0,0,0,0,0,1.7529,1.7528,0,1.7465,1.7464,1.7464,1.7438,1.7438,1.7438,1.7438,1.7367,1.7365,1.7363,0,0,0,0,0,0,0,0,0,0,0,0,0,1.7621,1.762,1.7529,1.7528,1.7527,1.7465,1.7464,1.7464,1.7438,1.7438,1.7438,1.7438,1.7368,1.7365,1.7363,0,0,0,0,0,0,0,0,0,0,0,0,0,1.7571,1.7619,1.7529,1.7507,1.7505,1.7466,1.7464,1.7463,1.7437,1.7438,1.7438,1.7438,1.7369,1.7366,1.7363,1.7339,0,0,1.7353,1.7352,0,0,0,0,0,0,0,0,1.7574,1.7568,1.7511,1.7509,1.7506,1.746,1.7471,1.7421,1.7437,1.7463,1.7438,1.7438,1.7397,1.7392,1.7379,1.7336,1.7333,1.7353,1.7351,1.735,1.7349,0,0,0,0,0,0,0,1.7578,1.7571,1.7504,1.751,1.7507,1.7498,1.7491,1.7461,1.7429,1.7461,1.7459,1.7452,1.7396,1.7382,1.7377,1.7332,1.7353,1.735,1.7349,1.7347,1.7262,1.7261,0,0,0,0,0,0,1.7586,1.7574,1.7506,1.7502,1.7541,1.7496,1.7489,1.7474,1.743,1.7423,1.7452,1.7451,1.7387,1.7381,1.7375,1.7342,1.735,1.7347,1.7345,1.7262,1.7262,1.7261,0,0,0,0,0,0,1.7588,1.758,1.7508,1.7537,1.7527,1.7494,1.7478,1.7473,1.7459,1.7423,1.7416,1.7444,1.7387,1.7379,1.7348,1.7339,1.7346,1.7343,1.7263,1.7262,1.7261,1.7278,0,0,0,0,0,0,1.7591,1.7581,1.7574,1.7537,1.7526,1.7485,1.7478,1.7471,1.7455,1.7453,1.7414,1.7408,1.7387,1.7352,1.7345,1.7335,1.7341,1.7263,1.7262,1.7262,1.7278,1.7278,1.7278,0,0,0,0,0,1.7594,1.758,1.7573,1.7565,1.7516,1.7484,1.7478,1.7455,1.7454,1.7445,1.7421,1.7409,1.7342,1.735,1.7341,1.733,1.7264,1.7263,1.7262,1.7278,1.7278,1.7278,0,0,0,0,0,0,1.7616,1.7575,1.7567,1.7542,1.7517,1.748,1.7468,1.7456,1.743,1.7429,1.7401,1.7392,1.7362,1.7343,1.7352,1.7303,1.7301,1.7299,1.7317,1.7317,1.7317,1.7321,1.7338,0,0,0,0,0,1.7618,1.7597,1.7562,1.7543,1.7531,1.7502,1.7487,1.7472,1.7444,1.7433,1.7407,1.7378,1.735,1.7332,1.7305,1.7275,1.7264,1.7263,1.7263,1.7263,1.7261,1.724,1.7238,1.7258,1.7258,1.7258,0,0,1.7621,1.7597,1.7585,1.7547,1.7525,1.7502,1.7493,1.7469,1.7451,1.7428,1.7397,1.7377,1.7343,1.7312,1.7296,1.7295,1.7253,1.7262,1.7263,1.726,1.7239,1.7237,1.7236,1.7257,1.7257,1.7257,0,0,1.7616,1.7596,1.7577,1.7556,1.7524,1.7504,1.7499,1.7464,1.745,1.7418,1.74,1.7376,1.733,1.7306,1.7287,1.7269,1.7256,1.7261,1.726,1.7241,1.7239,1.7237,1.7229,1.7226,1.7259,1.7259,1.7259,0,1.7624,1.759,1.7568,1.7545,1.7527,1.7507,1.7485,1.7465,1.7425,1.7412,1.7411,1.735,1.7326,1.7287,1.7283,1.7269,1.726,1.7265,1.7242,1.724,1.7238,1.7229,1.7226,1.7259,1.7259,1.7259,1.7259,0,1.76,1.7577,1.7564,1.7528,1.7508,1.7486,1.7458,1.7441,1.7426,1.7406,1.7372,1.7342,1.7307,1.7296,1.7282,1.7254,1.7254,1.7248,1.7245,1.7237,1.7228,1.7225,1.726,1.726,1.726,1.726,0,0,1.7608,1.7558,1.7553,1.7535,1.7497,1.7478,1.7453,1.742,1.7404,1.7376,1.7353,1.7312,1.7305,1.7284,1.7267,1.725,1.7234,1.7245,1.7243,1.7242,1.7198,1.7202,1.7199,1.7225,1.7224,1.7224,1.72,0,1.7596,1.7553,1.7531,1.7497,1.7473,1.7452,1.7429,1.7402,1.7381,1.7356,1.7332,1.7303,1.7298,1.7284,1.7266,1.724,1.7224,1.7241,1.72,1.7199,1.7208,1.7194,1.7199,1.7178,1.7196,1.7196,1.7195,0,1.7577,1.755,1.7514,1.7476,1.7465,1.7446,1.7412,1.7389,1.7356,1.7342,1.7318,1.73,1.7269,1.7269,1.7225,1.7237,1.7218,1.7202,1.7201,1.7195,1.7196,1.7186,1.7172,1.7168,1.719,1.7191,1.7191,0,1.7584,1.7539,1.751,1.7495,1.7452,1.7438,1.7418,1.7386,1.7366,1.7336,1.7322,1.7288,1.7269,1.7241,1.7213,1.7216,1.717,1.7169,1.7155,1.7156,1.7146,1.7147,1.7126,1.7136,1.7136,1.7137,1.7137,0,1.7573,1.755,1.7512,1.7495,1.7468,1.7442,1.7415,1.7393,1.7364,1.7339,1.7318,1.7295,1.726,1.7232,1.7209,1.7174,1.7166,1.7151,1.7145,1.7153,1.7154,1.7139,1.7139,1.7136,1.7136,1.7136,1.7136,0,1.7576,1.755,1.7517,1.7478,1.7467,1.7449,1.7414,1.7394,1.7371,1.734,1.7331,1.7295,1.726,1.723,1.7183,1.7168,1.7131,1.7124,1.7142,1.7139,1.7126,1.7127,1.7094,1.7087,1.7104,1.7104,1.7104,0,1.757,1.7553,1.7511,1.7494,1.7475,1.7448,1.7428,1.7399,1.7378,1.7338,1.7322,1.7286,1.7255,1.7199,1.7167,1.713,1.7122,1.7113,1.7116,1.7123,1.7119,1.712,1.7116,1.7112,1.7112,1.7112,1.7112,0,1.7562,1.7549,1.7522,1.7489,1.7466,1.7439,1.741,1.7397,1.7362,1.7339,1.7304,1.728,1.7232,1.7195,1.7154,1.7131,1.7114,1.7111,1.7106,1.7112,1.7123,1.7115,1.714,1.7112,1.7112,1.7112,1.7112,1.7112,1.7559,1.7541,1.7509,1.7478,1.7454,1.7427,1.7406,1.7381,1.7351,1.7311,1.7295,1.7258,1.7221,1.7165,1.7141,1.711,1.7107,1.71,1.7098,1.7096,1.7096,1.7129,1.7102,1.7102,1.7102,1.7102,1.7102,0,1.7548,1.7526,1.7498,1.7459,1.7434,1.7422,1.7389,1.7368,1.7337,1.7305,1.7275,1.7232,1.7195,1.7159,1.7119,1.71,1.7092,1.7091,1.7091,1.7085,1.7102,1.711,1.7098,1.7098,1.7098,1.7098,1.7098,1.7098,1.7539,1.7508,1.7491,1.7446,1.7422,1.7388,1.7369,1.7343,1.7317,1.7271,1.7241,1.7218,1.7183,1.714,1.7104,1.7094,1.7079,1.708,1.7068,1.7084,1.7085,1.7085,1.7092,1.7078,1.7078,1.7054,1.7054,1.7053]}]]